User: anonymous   Login
Location: Unspecified
(0.0000°N, 0.0000°E)
Time: 03:24:58
(UTC+02:00)
Language:

NOAA 12 - Orbit

View from above orbital plane
View from above orbital plane
View from above satellite
View from above satellite

Ground track
Ground track

The orbit data is extracted from the following two-line orbital elements,

1 21263U 91032A   15091.53508929  .00000156  00000-0  83972-4 0  9991
2 21263 098.6370 119.6347 0014838 116.5190 038.4034 14.25744180241642
Epoch (UTC): 01 April 2015 12:50:31
Eccentricity: 0.0014838
inclination: 98.6370°
perigee height: 795 km
apogee height: 816 km
right ascension of ascending node: 119.6347°
argument of perigee: 116.5190°
revolutions per day: 14.25744180
mean anomaly at epoch: 38.4034°
orbit number at epoch: 24164

The dashed part of the orbit path shows where the satellite is in the earth's shadow,  

DLR